PEGASUS DEB, 39318

Orbit data source: Space-Track

PEGASUS DEB, 39318 is space debris in LEO originally from a launch on Thu, 19 May 1994 UTC launched from the Air Force Western Test Range (AFWTR). Debris objects in space refer to the collection of defunct objects orbiting the Earth. Examples of debris include non-operational satellites, rocket bodies, and fragments generated from explosions, collisions, or faulty payload assembly.

Loading next visibility...
Identifier
39318, 1994-029AFD
Orbit
LEO
Country
Flag of USUS
Related business
Manufacturer
Unknown
Mission
Spacecraft
Bus & Motor
Unknown
Mass
Unknown
Launch date (UTC)
1994-05-19 (32 years ago)
Launch vehicle
Unknown
Launch site
Air Force Western Test Range (AFWTR)
Object type
Payload
Rocket body
Debris
Shape & HBR
Unknown shape, 0.1 m
Radar Cross Section
Small (<0.1 m²)

Expand to show TLE details & history
Last TLE update: 3 days ago

TLE from 3 days ago
0 PEGASUS DEB
1 39318U 94029AFD 26233.63845311  .00001480  00000-0  20949-3 0  9995
2 39318  81.9453   9.2617 0185065 160.7999 213.2118 14.65283962287660
Epoch: 2026-08-21T15:19Z
TLE epoch observation values (Epoch: 2026-08-21T15:19:22.348Z)
Latitude
12.70344°
Longitude
171.27664°
Altitude
788.361 km
Speed
7.402 km/s
True Right ascension
00h 44m 19s
True Declination
12° 37' 49"
Sunlit
Object was in full shadow at epoch
Visualization orbit readout
Latitude
Unknown
Longitude
Unknown
Altitude
Unknown
Speed
Unknown
Apparent Right ascension
Unknown
Apparent Declination
Unknown
Sunlit
N/A
Visualization observer readout
Local Sidereal Time
21:44:41
Azimuth
Unknown
Elevation
Unknown
Doppler factor
Unknown
Orbital elements
Apogee altitude
803.726 km
Perigee altitude
542.734 km
Semi-major axis
7,051.367 km
Eccentricity
0.01851
Inclination
81.9453°
RAAN
9.2617°
Arg. of periapsis
160.7999°
True anomaly
212.07237°
Mean anomaly
213.2118°
Eccentric anomaly
212.6399°
Mean motion
3.6655 °/min
Orbital period
98.21 mins
BSTAR
0.00020949
Loading maneuver chart data...
Computing Atmospheric mass density...

Documentation

Showing up to 5 results
|